Tracking 29892 objects as of 21-Nov-2024
HD Live streaming from Space Station
objects crossing your sky now

STARLINK-30928

Track STARLINK-30928 now!
10-day predictions
STARLINK-30928 is classified as:


NORAD ID: 58452
Int'l Code: 2023-183R
Perigee: 565.4 km
Apogee: 567.0 km
Inclination: 43.0 °
Period: 95.8 minutes
Semi major axis: 6937 km
RCS: Unknown
Launch date: November 28, 2023
Source: United States (US)
Launch site: AIR FORCE EASTERN TEST RANGE (AFETR)
Your satellite tracking list
Your tracking list is empty




NASA's NSSDC Master Catalog

Two Line Element Set (TLE):
1 58452U 23183R   24325.86615785  .00000183  00000-0  28610-4 0  9996
2 58452  43.0025  97.5415 0001208 294.5008  65.5708 15.02538373 55446
Source of the keplerian elements: AFSPC